Regional Weather Roundup
Issued by NWS

Home | Current Version | Previous Version | Graphics & Text | Print | Product List | Glossary On
Versions: 1 2 3 4 5 6 7 8 9 10 11 12 13 14 15 16 17 18 19 20 21 22 23 24 25 26 27 28 29 30 31 32 33 34 35 36 37 38 39 40 41 42 43 44 45 46 47 48 49 50
000
ASUS45 KSLC 010910
RWRUT

UTAH REGIONAL WEATHER ROUNDUP
NATIONAL WEATHER SERVICE SALT LAKE CITY UT
200 AM MST SUN FEB 01 2015

UTZ001>011-023>025-011000-

NORTHERN UTAH

CITY           SKY/WX    TMP DP  RH WIND       PRES   REMARKS
BRIGHAM CITY   CLEAR     28  25  89 SE3       30.18F
HILL AFB       CLEAR     30  22  69 SE6       30.17S WCI  24
LOGAN          CLEAR     25  23  92 CALM      30.18S
OGDEN          CLEAR     29  25  85 S9        30.16F WCI  20
PROVO AIRPORT  CLEAR     28  23  80 CALM      30.19R
SALT LAKE CITY CLEAR     30  27  88 CALM      30.19R
VERNAL         CLEAR     35  23  61 CALM      30.06R
WENDOVER       CLEAR     28  19  69 E5        30.19R WCI  23
HEBER CITY     CLEAR     23  19  86 CALM      30.16R
WEST JORDAN    CLEAR     28  23  80 W3        30.19R

$$

UTZ012>022-026-027-011000-

SOUTHERN/CENTRAL UTAH

CITY           SKY/WX    TMP DP  RH WIND       PRES   REMARKS
BLANDING       PTCLDY    31  31 100 NE3       30.12R
BRYCE CANYON   CLEAR     23  21  92 NW8       30.13S WCI  14
CEDAR CITY     CLEAR     27  24  89 CALM      30.15S
DELTA          CLEAR     29  29  98 CALM      30.17R
HANKSVILLE       N/A     30  30 100 NE3       30.09F VSB<1/4
MILFORD        CLEAR     28  25  88 CALM      30.16F
MOAB/CYNLANDS  PTCLDY    33  33 100 NE6       30.06S FOG     WCI  28
PRICE          CLEAR     36  15  42 W8        30.08R WCI  30
ST GEORGE      SUNNY     45  30  57 S10       30.11S
KANAB          CLEAR     32  32 100 S3        30.14R

$$

REGIONAL REPORTS     COLORADO/ARIZONA

CITY           SKY/WX    TMP DP  RH WIND       PRES   REMARKS
CRAIG, CO      CLEAR     20  15  81 SW6       30.09R WCI  12
GRAND JUNCTION CLOUDY    32  32 100 E5        30.08R WCI  27
RIFLE          CLEAR     27  24  89 SW5       30.08R WCI  22
MONTROSE       CLEAR     31  29  92 S5        30.08S WCI  26
CORTEZ         CLEAR     30  27  88 CALM      30.02R
PAGE, AZ       NOT AVBL
GRAND CANYON   CLEAR     24  21  88 CALM      30.09S
KINGMAN        CLEAR     44  38  79 E7        30.05S
FLAGSTAFF      CLEAR     35  29  78 NE8G18    30.06R WCI  29

$$

REGIONAL REPORTS    NEVADA/IDAHO/WYOMING

CITY           SKY/WX    TMP DP  RH WIND       PRES   REMARKS
LAS VEGAS, NV  CLEAR     49  40  71 S10       30.04R
ELY            CLEAR     20  17  88 S10       30.20R WCI   9
ELKO           CLEAR     26  21  81 CALM      30.22S
POCATELLO, ID  CLOUDY    30  30 100 NW3       30.20R
BURLEY         PTCLDY    26  24  92 CALM      30.17S
EVANSTON, WY   CLEAR     23  18  81 SW10      30.12S WCI  12
ROCK SPRINGS   CLEAR     19  13  77 W9        30.07S WCI   8

$$


USA.gov is the U.S. government's official web portal to all federal, state and local government web resources and services.